Probability
0 0 0 0 0 0 0 0 0 0 0 0 0 0 0 0 0 0 0 0 0 0 0 0 0 0 0 0 0 0 0 0 0 0 0 0 0 0 0 0 0 0 0 0
0 0 0 0 0 0 0 0 0 0 0 0 0 0 0 0 0 0 0 0 0 0 0 0 0 0 0 0 0 0 0 0 0 0 0 0 0 0 0 0 0 0 0 0
0 0 0 0 0 0 0 0 0 0 0 0 0 0 0 0 0 0 0 0 0 0 0 0 0 0 0 0 0 0 0 0 0 0 0 0 0 0 0 0 0 0 0 0
0 0 0 0 0 0 0 0 0 0 0 0 0 0 0 0 0 0 0 0 0 0 0 0 0 0 0 0 0 0 0 0 0 0 0 0 0 0 0 0 0 0 0 0
0 0 0 0 0 0 0 0 0 0 0 0 0 0 0 0 0 0 0 0 0 0 0 0 0 0 0 0 0 0 0 0 0 0 0 0 0 0 0 0 0 0 0 0
0 0 0 0 0 0 0 0 0 0 0 0 0 0 0 0 0 0 0 0 0 0 0 0 0 0 0 0 0 0 0 0 0 0 0 0 0 0 0 0 0 0 0 0
0 0 0 0 0 0 0 0 0 0 0 0 0 0 0 0 0 0 0 0 0 0 0 0 0 0 0 0 0 0 0 0 0 0 0 0 0 0 0 0 0 0 0 0
0 0 0 0 0 0 0 0 0 0 0 0 0 0 0 0 0 0 0 0 0 0 0 0 0 0 0 0 0 0 0 0 0 0 0 0 0 0 0 0 0 0 0 0
0 0 0 0 0 0 0 0 0 0 0 0 0 0 0 0 0 0 0 0 0 0 0 0 0 0 0 0 0 0 0 0 0 0 0 0 0 0 0 0 0 0 0 0
0 0 0 0 0 0 0 0 0 0 0 0 0 0 0 0 0 0 0 0 0 0 0 0 0 0 0 0 0 0 0 0 0 0 0 0 0 0 0 0 0 0 0 0
0 0 0 0 0 0 0 0 0 0 0 0 0 0 0 0 0 0 0 0 0 0 0 0 0 0 0 0 0 0 0 0 0 0 0 0 0 0 0 0 0 0 0 0
0 0 0 0 0 0 0 0 0 0 0 0 0 0 0 0 0 0 0 0 0 0 0 0 0 0 0 0 0 0 0 0 0 0 0 0 0 0 0 0 0 0 0 0
0 0 0 0 0 0 0 0 0 0 0 0 0 0 0 0 0 0 0 0 0 0 0 0 0 0 0 0 0 0 0 0 0 0 0 0 0 0 0 0 0 0 0 0
0 0 0 0 0 0 0 0 0 0 0 0 0 0 0 0 0 0 0 0 0 0 0 0 0 0 0 0 0 0 0 0 0 0 0 0 0 0 0 0 0 0 0 0
0 0 0 0 0 0 0 0 0 0 0 0 0 0 0 0 0 0 0 0 0 0 0 0 0 0 0 0 0 0 0 0 0 0 0 0 0 0 0 0 0 0 0 0
0 0 0 0 0 0 0 0 0 0 0 0 0 0 0 0 0 0 0 0 0 0 0 0 0 0 0 0 0 0 0 0 0 0 0 0 0 0 0 0 0 0 0 0
0 0 0 0 0 0 0 0 0 0 0 0 0 0 0 0 0 0 0 0 0 0 0 0 0 0 0 0 0 0 0 0 0 0 0 0 0 0 0 0 0 0 0 0
0 0 0 0 0 0 0 0 0 0 0 0 0 0 0 0 0 0 0 0 0 0 0 0 0 0 0 0 0 0 0 0 0 0 0 0 0 0 0 0 0 0 0 0
0 0 0 0 0 0 0 0 0 0 0 0 0 0 0 0 0 0 0 0 0 0 0 0 0 0 0 0 0 0 0 0 0 0 0 0 0 0 0 0 0 0 0 0
0 0 0 0 0 0 0 0 0 0 0 0 0 0 0 0 0 0 0 0 0 0 0 0 0 0 0 0 0 0 0 0 0 0 0 0 0 0 0 0 0 0 0 0
0 0 0 0 0 0 0 0 0 0 0 0 0 0 0 0 0 0 0 0 0 0 0 0 0 0 0 0 0 0 0 0 0 0 0 0 0 0 0 0 0 0 0 0
0 0 0 0 0 0 0 0 0 0 0 0 0 0 0 0 0 0 0 0 0 0 0 0 0 0 0 0 0 0 0 0 0 0 0 0 0 0 0 0 0 0 0 0
0 0 0 0 0 0 0 0 0 0 0 0 0 0 0 0 0 0 0 0 0 0 0 0 0 0 0 0 0 0 0 0 0 0 0 0 0 0 0 0 0 0 0 0
0 0 0 0 0 0 0 0 0 0 0 0 0 0 0 0 0 0 0 0 0 0 0 0 0 0 0 0 0 0 0 0 0 0 0 0 0 0 0 0 0 0 0 0
0 0 0 0 0 0 0 0 0 0 0 0 0 0 0 0 0 0 0 0 0 0 0 0 0 0 0 0 0 0 0 0 0 0 0 0 0 0 0 0 0 0 0 0
0 0 0 0 0 0 0 0 0 0 0 0 0 0 0 0 0 0 0 0 0 0 0 0 0 0 0 0 0 0 0 0 0 0 0 0 0 0 0 0 0 0 0 0
0 0 0 0 0 0 0 0 0 0 0 0 0 0 0 0 0 0 0 0 0 0 0 0 0 0 0 0 0 0 0 0 0 0 0 0 0 0 0 0 0 0 0 0
Height
5768 5767 5766 5766 5765 5764 5763 5762 5760 5758 5755 5753 5750 5747 5744 5742 5739 5737 5735 5733 5732 5730 5729 5728 5727 5727 5727 5727 5727 5728 5728 5729 5730 5732 5734 5736 5737 5739 5741 5742 5743 5745 5746 5747
5765 5764 5763 5762 5761 5761 5760 5758 5756 5754 5752 5749 5746 5743 5740 5737 5735 5732 5730 5728 5727 5725 5724 5723 5722 5721 5721 5721 5722 5722 5723 5724 5725 5726 5727 5729 5731 5732 5734 5736 5737 5738 5739 5740
5761 5760 5760 5759 5759 5757 5756 5755 5752 5750 5748 5744 5742 5739 5736 5733 5730 5727 5725 5723 5721 5720 5718 5717 5716 5715 5715 5715 5715 5716 5717 5718 5719 5720 5721 5723 5724 5726 5728 5729 5730 5732 5733 5734
5758 5758 5757 5758 5754 5753 5753 5751 5749 5746 5743 5740 5737 5734 5730 5727 5724 5722 5719 5717 5715 5713 5712 5711 5709 5709 5708 5708 5709 5709 5710 5711 5713 5714 5716 5717 5719 5720 5722 5723 5724 5726 5727 5728
5754 5754 5753 5753 5751 5749 5748 5747 5744 5741 5738 5735 5732 5728 5725 5722 5719 5716 5713 5711 5709 5707 5706 5705 5704 5703 5702 5702 5703 5703 5704 5706 5707 5708 5710 5711 5713 5714 5716 5717 5719 5720 5721 5723
5750 5750 5750 5751 5748 5746 5745 5743 5740 5737 5733 5730 5727 5723 5720 5716 5713 5710 5707 5705 5703 5701 5700 5699 5698 5697 5697 5697 5697 5698 5699 5700 5702 5703 5704 5706 5707 5709 5710 5712 5713 5715 5716 5718
5747 5746 5746 5746 5744 5743 5742 5740 5736 5732 5729 5725 5722 5719 5715 5711 5707 5704 5702 5700 5698 5696 5694 5693 5693 5692 5692 5692 5693 5694 5695 5696 5697 5698 5700 5701 5703 5704 5705 5707 5709 5710 5711 5712
5743 5743 5744 5742 5740 5739 5738 5734 5731 5727 5724 5721 5717 5713 5709 5706 5703 5700 5697 5695 5693 5691 5690 5689 5689 5689 5689 5689 5689 5690 5691 5692 5693 5694 5695 5697 5698 5700 5701 5703 5704 5705 5707 5708
5740 5741 5740 5739 5737 5735 5733 5731 5727 5724 5720 5716 5713 5709 5705 5702 5699 5696 5694 5691 5689 5688 5687 5686 5686 5685 5685 5686 5686 5687 5688 5689 5690 5691 5692 5693 5695 5696 5698 5699 5700 5701 5702 5703
5736 5737 5737 5736 5735 5733 5730 5727 5724 5720 5716 5713 5709 5705 5702 5699 5696 5693 5691 5688 5687 5685 5684 5683 5683 5683 5683 5683 5683 5684 5685 5686 5687 5688 5689 5690 5692 5693 5694 5695 5696 5697 5699 5700
5733 5735 5735 5734 5732 5730 5728 5724 5721 5717 5714 5710 5706 5703 5699 5696 5693 5691 5688 5686 5684 5683 5682 5681 5681 5680 5680 5681 5681 5682 5683 5684 5685 5686 5687 5688 5689 5690 5691 5692 5694 5695 5696 5696
5731 5732 5732 5731 5730 5728 5725 5723 5719 5716 5712 5708 5705 5701 5698 5695 5692 5689 5687 5685 5683 5682 5681 5680 5679 5679 5679 5679 5679 5680 5681 5681 5683 5684 5685 5686 5687 5688 5689 5691 5692 5692 5693 5694
5729 5730 5730 5730 5728 5726 5724 5722 5719 5715 5711 5707 5704 5700 5697 5694 5691 5688 5686 5684 5683 5682 5680 5679 5678 5678 5678 5678 5678 5679 5679 5680 5681 5682 5684 5685 5686 5687 5688 5689 5690 5690 5691 5691
5727 5728 5729 5728 5727 5726 5723 5721 5718 5714 5711 5707 5704 5700 5697 5693 5691 5688 5686 5685 5683 5682 5681 5680 5678 5678 5678 5678 5678 5678 5679 5680 5681 5682 5683 5684 5685 5686 5687 5688 5689 5689 5689 5690
5726 5728 5728 5728 5727 5726 5723 5721 5718 5714 5711 5707 5704 5700 5697 5694 5691 5689 5687 5685 5684 5682 5681 5680 5679 5678 5678 5678 5678 5679 5679 5680 5681 5681 5682 5683 5684 5685 5686 5687 5688 5688 5688 5688
5726 5727 5728 5728 5727 5726 5724 5721 5718 5715 5712 5708 5705 5701 5698 5695 5692 5690 5688 5686 5684 5683 5682 5680 5679 5679 5679 5679 5680 5680 5680 5681 5681 5682 5683 5684 5684 5685 5686 5687 5688 5688 5688 5688
5725 5727 5728 5728 5727 5726 5724 5722 5719 5716 5713 5710 5707 5703 5700 5697 5694 5692 5690 5688 5686 5685 5683 5682 5682 5681 5681 5681 5681 5682 5682 5683 5683 5684 5684 5685 5686 5686 5687 5688 5688 5689 5689 5689
5725 5727 5728 5729 5728 5727 5725 5723 5721 5718 5715 5712 5709 5706 5703 5700 5697 5695 5692 5690 5689 5687 5686 5685 5684 5684 5684 5683 5684 5684 5684 5685 5685 5686 5686 5687 5688 5688 5689 5689 5690 5690 5690 5690
5725 5727 5729 5729 5728 5728 5726 5725 5723 5720 5717 5714 5712 5709 5705 5703 5700 5697 5695 5693 5692 5690 5690 5688 5688 5687 5687 5686 5686 5687 5687 5687 5688 5688 5689 5689 5690 5690 5691 5691 5692 5692 5692 5692
5725 5727 5729 5729 5729 5729 5728 5726 5725 5723 5720 5718 5715 5712 5709 5706 5703 5701 5699 5697 5696 5695 5694 5693 5692 5691 5691 5690 5690 5690 5690 5691 5691 5691 5692 5692 5693 5693 5694 5694 5694 5694 5694 5694
5726 5728 5729 5730 5730 5730 5729 5728 5727 5725 5723 5721 5718 5716 5713 5710 5708 5706 5704 5702 5701 5700 5699 5698 5697 5696 5695 5695 5694 5694 5694 5694 5695 5695 5695 5696 5696 5696 5697 5697 5697 5697 5697 5697
5725 5728 5729 5730 5731 5731 5731 5730 5729 5728 5726 5724 5722 5720 5718 5715 5713 5711 5709 5708 5707 5705 5704 5703 5702 5701 5701 5700 5700 5699 5699 5699 5699 5699 5699 5699 5700 5700 5701 5701 5701 5701 5701 5700
5725 5728 5729 5731 5731 5732 5732 5732 5731 5730 5729 5728 5726 5725 5723 5720 5718 5717 5715 5714 5712 5711 5710 5709 5708 5707 5706 5706 5705 5705 5705 5704 5704 5704 5704 5704 5704 5704 5705 5705 5705 5704 5704 5704
5724 5727 5729 5731 5732 5733 5733 5733 5733 5733 5732 5731 5730 5729 5727 5725 5724 5722 5721 5719 5718 5717 5716 5715 5714 5713 5712 5711 5711 5711 5710 5710 5709 5709 5709 5709 5709 5709 5709 5709 5709 5708 5708 5707
5722 5725 5728 5731 5732 5733 5734 5735 5735 5735 5734 5734 5733 5732 5731 5730 5728 5727 5726 5725 5723 5722 5721 5720 5719 5719 5718 5717 5716 5716 5716 5715 5714 5714 5713 5713 5713 5713 5713 5713 5712 5712 5711 5711
5720 5724 5727 5730 5732 5734 5735 5735 5736 5736 5736 5736 5736 5735 5734 5733 5732 5731 5730 5729 5728 5727 5726 5725 5725 5724 5723 5722 5722 5721 5721 5720 5719 5719 5718 5718 5718 5717 5717 5716 5716 5715 5714 5714
5718 5722 5726 5729 5732 5734 5735 5736 5737 5738 5738 5738 5738 5738 5737 5737 5736 5735 5734 5733 5732 5732 5731 5730 5730 5729 5728 5727 5726 5726 5725 5725 5724 5723 5723 5722 5722 5721 5721 5720 5719 5718 5717 5716
Wind_Speed
12 12 13 14 15 14 14 14 15 16 17 18 18 18 18 17 17 16 16 16 16 16 15 15 15 15 15 15 16 16 16 16 18 19 20 21 21 20 20 21 22 22 22 21
12 12 13 13 13 14 14 15 15 16 17 18 18 19 19 18 18 17 17 17 17 16 16 16 16 16 17 17 17 17 17 18 18 18 19 19 20 20 20 20 21 22 22 22
12 12 12 13 13 14 14 14 16 17 17 18 19 20 19 19 19 18 18 18 17 17 17 17 17 17 17 17 17 18 18 18 18 19 18 18 18 20 21 20 20 20 20 20
13 13 13 12 13 13 13 14 16 16 18 19 20 20 20 20 19 19 19 18 18 18 17 18 17 17 17 17 17 17 18 18 18 19 19 19 19 19 19 19 19 19 19 19
13 13 13 12 12 13 14 15 16 16 18 19 20 20 20 20 20 20 19 18 18 18 17 17 16 16 16 17 17 17 17 17 17 18 17 17 18 19 19 19 19 18 18 18
14 14 14 13 13 14 16 16 17 17 18 20 20 20 20 20 20 19 19 18 17 16 16 16 15 14 15 15 15 15 15 15 16 16 16 16 16 17 17 17 17 16 17 17
13 13 13 12 12 13 15 16 17 18 18 20 20 20 20 20 19 18 17 16 15 14 13 12 12 11 11 11 11 12 12 13 14 14 14 14 14 14 15 16 16 15 15 16
11 11 10 10 10 12 14 16 17 18 19 19 19 20 19 18 17 16 15 13 13 11 10 10 9 9 9 9 9 9 10 10 10 11 11 11 11 12 13 14 15 15 15 15
10 9 8 8 9 11 13 14 16 18 18 18 18 18 17 16 15 14 13 11 10 8 7 7 7 7 7 8 8 9 8 9 9 10 10 11 11 12 12 12 12 13 13 14
8 6 5 6 7 9 12 14 16 16 16 17 17 16 15 14 13 12 11 9 7 6 5 5 5 6 6 6 6 7 8 8 9 9 9 9 10 10 10 9 10 11 11 11
8 5 4 5 7 10 12 14 15 15 16 16 15 15 14 13 12 11 9 7 6 5 5 4 4 4 5 5 6 6 6 7 8 8 8 8 8 8 7 7 7 8 8 8
5 2 2 4 7 10 11 13 14 15 16 16 15 14 13 12 11 9 8 6 5 4 4 3 2 2 2 2 3 4 5 5 6 6 6 6 6 6 6 6 6 6 6 6
4 1 2 5 8 10 12 13 14 15 16 16 15 14 13 12 11 9 8 7 6 6 5 4 3 2 1 0 1 1 2 4 5 5 5 5 5 5 5 5 5 5 5 5
4 1 3 6 8 10 12 13 14 15 15 16 15 14 13 12 10 9 8 7 7 6 5 5 4 3 2 2 2 2 3 3 4 4 4 4 4 4 3 3 3 3 3 3
5 2 3 5 7 9 11 13 14 15 15 16 16 15 14 13 11 10 9 8 7 7 6 5 4 4 4 4 4 4 4 4 4 3 4 4 4 3 3 2 2 1 0 1
6 3 3 4 6 9 11 12 14 15 15 16 17 16 15 14 12 12 11 10 9 9 8 8 7 7 6 6 6 6 6 6 5 5 5 5 5 5 4 4 3 2 2 2
6 4 3 4 6 8 10 11 13 14 15 16 17 16 16 15 14 13 12 11 11 10 10 10 9 9 9 8 7 7 7 7 7 7 7 7 7 7 6 5 5 5 5 4
7 5 4 5 6 8 10 11 12 14 15 15 16 16 16 15 14 13 13 12 12 11 11 11 11 11 10 10 9 9 9 9 9 9 8 8 8 8 7 7 7 7 6 6
8 6 5 5 6 7 9 10 12 13 14 15 16 16 16 16 15 15 14 14 14 14 13 13 13 13 12 12 11 11 11 10 10 10 10 10 10 10 9 9 9 8 8 8
9 8 6 5 6 7 8 10 11 13 14 16 16 17 17 17 17 17 16 16 16 16 16 16 16 15 15 15 14 13 13 12 13 13 12 12 12 11 11 11 11 10 10 10
10 9 6 5 6 7 8 9 11 12 14 15 16 17 17 18 18 18 18 18 18 18 17 17 17 17 17 17 16 15 15 15 15 15 14 14 13 13 13 13 12 12 11 11
12 10 8 6 6 6 7 8 10 12 13 15 16 17 18 19 19 19 19 19 19 19 19 19 19 19 19 18 18 17 17 17 17 17 16 16 15 15 15 14 13 13 13 12
14 11 9 7 6 6 7 8 9 11 12 14 15 16 18 19 19 19 19 20 20 20 20 20 19 19 19 19 19 18 18 18 18 18 18 17 16 16 15 15 14 14 13 13
16 13 11 9 7 7 7 7 9 10 11 13 14 15 16 17 18 19 19 19 19 20 20 20 20 20 20 19 19 19 19 19 19 18 18 17 17 16 15 15 14 14 14 13
18 15 13 10 9 8 7 8 8 9 10 12 13 14 15 16 17 17 18 19 19 19 19 19 19 19 19 19 19 18 18 18 18 18 18 17 16 15 15 14 13 13 13 12
20 18 15 13 11 9 8 8 8 9 10 11 12 12 14 14 15 16 16 17 18 18 18 18 18 18 18 18 18 17 17 17 17 17 17 16 15 15 14 14 13 13 13 12
23 20 17 15 13 11 9 9 8 9 9 10 10 11 12 13 13 14 15 15 16 16 16 16 17 17 17 17 17 16 16 16 16 16 16 15 14 14 13 13 12 12 12 11
Wind_Direction
268 268 269 269 273 278 286 297 304 310 313 317 320 320 319 318 315 312 308 306 303 300 293 288 284 280 273 270 266 259 255 253 249 247 247 246 244 244 245 245 247 248 250 252
267 268 269 271 275 280 289 298 305 311 314 316 318 318 317 317 313 309 306 304 302 299 293 288 283 280 274 270 266 260 254 253 253 249 247 245 245 245 246 248 248 248 250 253
260 265 268 270 281 286 289 303 310 312 314 316 316 315 315 313 310 308 305 302 299 297 292 289 284 279 274 269 266 262 256 252 251 249 248 249 246 246 247 248 248 247 249 253
261 263 267 277 281 285 294 302 306 308 311 314 315 315 314 312 310 307 304 301 296 293 291 290 286 278 271 268 265 260 253 249 248 247 247 246 246 246 245 246 249 248 248 251
258 262 269 280 290 294 300 304 307 311 313 316 318 317 316 314 311 309 307 302 297 293 290 288 284 276 272 268 262 257 252 248 245 244 245 247 247 248 248 248 247 248 251 252
258 266 273 282 288 295 302 307 311 316 318 319 320 319 318 316 313 311 308 305 300 293 287 282 276 274 270 264 262 259 251 246 245 243 244 245 244 245 244 245 244 246 249 251
257 271 281 288 296 301 306 313 316 319 320 321 321 320 320 319 316 313 310 306 301 296 288 284 277 272 266 260 254 250 247 245 242 239 238 238 239 239 239 241 240 244 249 249
257 271 284 293 300 308 313 317 321 323 323 324 325 324 324 322 319 317 313 309 306 299 289 283 277 267 262 256 249 245 243 241 235 233 232 234 233 233 235 238 238 240 245 248
259 271 280 296 308 313 317 322 324 326 327 328 329 330 329 328 325 321 318 314 310 302 290 282 277 269 261 253 247 242 237 233 230 230 229 230 229 231 233 237 240 242 247 251
255 263 286 308 321 328 329 329 332 335 336 337 338 338 336 334 330 327 325 322 316 312 301 291 285 274 261 249 240 233 233 232 230 227 229 227 230 231 232 237 244 247 249 250
240 257 286 311 332 336 337 341 344 345 345 346 347 346 344 341 338 336 334 333 330 326 320 307 293 276 255 247 244 236 233 233 229 228 228 227 226 227 229 233 237 239 241 244
212 236 312 347 353 347 350 353 353 352 353 354 355 353 352 351 349 349 352 356 357 355 354 347 327 291 251 235 230 230 222 214 212 210 214 216 214 215 218 222 227 233 237 244
193 209 352 4 0 357 357 358 358 358 358 358 0 2 2 2 3 6 10 12 12 12 16 17 15 15 33 129 147 171 189 194 197 198 199 200 201 206 210 213 219 228 236 249
176 148 27 14 5 1 1 3 3 3 3 6 9 10 10 12 15 20 23 24 25 29 32 32 38 55 78 86 103 117 135 152 166 174 179 183 186 190 190 192 205 219 235 253
156 117 43 18 12 9 7 9 11 12 13 15 16 16 17 22 28 31 31 31 32 35 37 41 48 62 77 89 97 100 106 116 127 138 146 151 151 153 154 156 158 164 237 290
151 122 58 25 20 17 13 14 17 19 21 22 23 24 27 32 37 38 40 42 45 48 52 56 63 71 81 91 96 99 100 100 105 111 116 121 124 125 127 125 114 95 77 61
153 132 79 47 36 27 23 24 25 27 27 28 31 33 35 38 41 43 46 50 55 58 61 65 72 78 81 88 95 99 100 100 101 103 107 110 112 114 113 109 100 92 88 83
160 140 100 68 50 38 33 33 34 34 34 35 37 39 40 42 44 48 52 57 61 64 68 72 77 79 82 86 91 96 100 101 102 102 102 104 105 105 103 100 98 96 93 90
161 143 115 83 62 50 44 42 41 41 40 41 42 43 44 46 50 55 60 65 68 71 73 75 78 80 83 87 91 95 97 99 100 101 101 101 101 100 97 97 97 95 93 88
158 148 128 98 75 62 55 52 50 50 49 48 48 48 49 52 56 61 66 69 71 73 75 77 78 80 83 85 88 90 93 96 98 99 99 99 98 96 95 95 93 91 89 87
161 153 139 111 89 74 65 61 59 58 56 55 54 54 56 59 62 65 69 71 74 75 77 78 79 80 81 83 85 88 92 95 96 96 96 96 96 95 94 93 91 89 87 85
167 159 146 125 103 87 77 72 68 66 64 62 62 62 64 65 66 68 71 73 76 77 78 79 80 81 82 82 84 86 89 91 92 93 94 94 94 94 93 92 90 87 86 84
170 164 154 140 121 104 92 84 78 74 72 69 68 68 68 69 70 71 73 75 76 77 78 79 80 81 82 83 84 85 87 89 90 91 92 92 93 92 91 89 88 86 85 83
172 168 160 151 138 121 109 100 92 85 81 77 75 74 73 72 72 73 75 77 78 78 79 80 81 81 81 82 83 84 85 86 87 88 89 89 89 88 88 87 86 84 82 80
174 171 166 160 150 136 123 115 106 97 90 85 80 77 76 76 76 76 77 78 79 79 79 79 80 80 80 81 82 83 84 83 84 85 85 86 86 86 85 83 82 80 78 75
177 175 172 168 160 148 136 127 118 110 101 94 88 84 81 80 80 80 79 79 79 79 80 80 80 81 81 81 81 81 81 81 81 82 82 83 83 83 81 80 77 74 72 68
181 179 176 173 168 159 150 140 131 123 115 107 99 93 88 86 85 83 82 81 81 81 81 82 82 81 81 81 80 80 79 79 79 79 79 78 77 76 74 72 69 66 62 59